Simultaneous Nadir Overpasses (SNOs) Predictions

Prediction of SNOs between NOAA-15 and METOP-C Satellite Orbit:

Table of predicted SNOs for the next 14.0 days since TLE Epoch: 3/5/2022
Index Date (NOAA-15) Time (NOAA-15) Lat,Lon (NOAA-15) SZA (NOAA-15 ) Date (METOP-C) Time (METOP-C) Lat,Lon (METOP-C) SZA (METOP-C ) Distance(km) Time Diff (sec)
1 03/15/2022 19:23:30 -81.04, 107.39 95.38 03/15/2022 19:22:16 -81.04, 107.20 95.42 3.30 74
2 03/15/2022 20:14:05 81.05, -85.49 84.60 03/15/2022 20:12:56 81.04, -85.55 84.56 1.66 69
3 03/15/2022 21:04:32 -81.04, 82.12 95.40 03/15/2022 21:03:37 -81.05, 82.08 95.42 1.28 55
4 03/15/2022 21:55:07 81.05,-110.76 84.57 03/15/2022 21:54:17 81.05,-110.67 84.56 1.72 50
5 03/15/2022 22:45:35 -81.06, 56.48 95.45 03/15/2022 22:44:59 -81.05, 56.59 95.47 2.47 36
6 03/15/2022 23:36:09 81.05,-136.03 84.55 03/15/2022 23:35:39 81.04,-136.15 84.52 2.36 30
7 03/16/2022 00:26:36 -81.04, 31.57 95.46 03/16/2022 00:26:20 -81.05, 31.48 95.47 2.13 16
8 03/16/2022 01:17:11 81.05,-161.30 84.52 03/16/2022 01:17:00 81.05,-161.27 84.52 0.59 11
9 03/16/2022 02:07:39 -81.06, 5.93 95.51 03/16/2022 02:07:42 -81.05, 5.99 95.51 1.55 3
10 03/16/2022 02:58:13 81.05, 173.43 84.49 03/16/2022 02:58:21 81.06, 173.61 84.52 3.31 8
11 03/16/2022 03:48:40 -81.04, -18.97 95.52 03/16/2022 03:49:03 -81.06, -19.13 95.51 3.12 23
12 03/16/2022 04:39:15 81.05, 148.16 84.46 03/16/2022 04:39:43 81.05, 148.13 84.47 0.54 28
13 03/16/2022 05:29:42 -81.06, -44.61 95.56 03/16/2022 05:30:24 -81.05, -44.62 95.56 1.00 42
14 03/16/2022 06:20:16 81.05, 122.89 84.44 03/16/2022 06:21:03 81.06, 123.01 84.47 2.34 47
15 03/16/2022 07:10:44 -81.06, -69.88 95.59 03/16/2022 07:11:45 -81.06, -69.73 95.56 2.59 61



Historial Predications of SNOs between NOAA-15 and METOP-C
